Voltar ao catálogo

COSMOS 1867 COOLANT

AtivoLEO
NORAD 39654·DEBRIS·🇷🇺 Russia

Lançado Jul 10, 1987 de Baikonur Cosmodrome

Loading…

Próximas Passagens (próximas 24 horas)

TLE

AtualizadoSource: Space-Track

Época: Sep 14, 2026, 21:25 UTC

1 39654U 87060R   26257.89239947  .00000142  00000-0  87008-4 0  9995
2 39654  65.0053 121.4941 0019476 280.4036  79.4854 14.33708440649369

Acompanhe COSMOS 1867 COOLANT em tempo real com AllMySat

Download on the App Store